Tracking 35237 objects as of 6-Sep-2026
HD Live streaming from Space Station
objects crossing your sky now

DELTA 4 DEB


DELTA 4 DEB is no longer on orbit


NORAD ID: 39758
Int'l Code: 2014-026G
Launch date: May 17, 2014
Source: United States (US)
Launch site: AIR FORCE EASTERN TEST RANGE (AFETR)
Decay date: 2014-05-24

Note: This is SATELLITE DEBRIS
Your satellite tracking list
Your tracking list is empty




NASA's NSSDC Master Catalog

Two Line Element Set (TLE):
1 39758U 14026G   14142.15898885  .39958755  32018-5  28862+0 0  9994
2 39758 052.6241 123.0258 2284238 090.5327 315.8619 11.00851904   484
Source of the keplerian elements: AFSPC